Home   Weather   Damascus   Past weeks

Flag for Syria Past Weather in Damascus, Syria — Yesterday and Last 2 Weeks

Now
79 °F

Clear.


Feels Like: 81 °F
Forecast: 65 / 99 °F
Wind: 16 mph from Southwest

Location: Damascus Int. Airport

Current Time: Aug 30, 2016 at 11:55:54 PM

Latest Report: Aug 30, 2016 at 11:00 PM


Visibility: 10 mi

Pressure: 29.89 "Hg (27.63 "Hg at 689m altitude)

Humidity: 65%

Dew Point: 66 °F

Location of DamascusLocation

Past Weather in Damascus — Graph

°F

Damascus Temperature Yesterday

Maximum temperature yesterday: 102 °F (at 4:00 PM)
Minimum temperature yesterday: 70 °F (at 5:00 AM)
Average temperature yesterday: 84 °F

High & Low Weather Summary for the Past Weeks

 TemperatureHumidityPressure
High106 °F (Aug 24, 5:00 PM)94% (Aug 16, 7:00 AM)29.98 "Hg (Aug 16, 7:00 AM)
Low64 °F (Aug 17, 6:00 AM)10% (Aug 24, 2:00 PM)29.71 "Hg (Aug 17, 4:00 PM)
Average84 °F46%29.85 "Hg
* Reported Aug 15 11:00 PM — Aug 30 10:00 PM, Damascus, Weather by CustomWeather, © 2016

Note: Actual official high and low records may vary slightly from our data, if they occured in-between our weather recording intervals... More about our weather records

Advertising

Damascus Weather History for the Previous 24 Hours

Scroll right to see more
 ConditionsComfort  
Time TempWeatherWind HumidityBarometerVisibility
10:00 PM
Tue, Aug 30
81 °FClear.9 mph74%29.86 "Hg10 mi
9:00 PM82 °FClear.12 mph66%29.86 "Hg10 mi
8:00 PM88 °FPassing clouds.16 mph55%29.83 "HgN/A
7:00 PM93 °FPassing clouds.12 mph47%29.80 "HgN/A
6:00 PM99 °FSunny.14 mph37%29.83 "Hg10 mi
5:00 PM102 °FSunny.12 mph20%29.83 "Hg10 mi
4:00 PM102 °FSunny.7 mph18%29.83 "Hg10 mi
3:00 PM100 °FSunny.No wind21%29.86 "Hg10 mi
2:00 PM99 °FSunny.7 mph24%29.86 "Hg10 mi
1:00 PM95 °FSunny.2 mph30%29.89 "Hg10 mi
12:00 PM90 °FSunny.5 mph33%29.92 "Hg10 mi
11:00 AM88 °FSunny.5 mph40%29.92 "Hg10 mi
10:00 AM81 °FSunny.2 mph54%29.95 "Hg10 mi
9:00 AM77 °FSunny.9 mph65%29.92 "Hg10 mi
8:00 AM75 °FSunny.10 mph69%29.92 "Hg10 mi
7:00 AM72 °FClear.13 mph78%29.92 "Hg10 mi
6:00 AM72 °FClear.9 mph78%29.89 "Hg10 mi
5:00 AM72 °FClear.12 mph73%29.89 "Hg10 mi
4:00 AM73 °FClear.9 mph69%29.89 "Hg10 mi
3:00 AM73 °FClear.6 mph69%29.89 "Hg10 mi
2:00 AM75 °FClear.10 mph61%29.89 "Hg10 mi
1:00 AM77 °FClear.10 mph57%29.92 "Hg10 mi
12:00 AM77 °FClear.9 mph57%29.92 "Hg10 mi
11:00 PM
Mon, Aug 29
81 °FClear.15 mph51%29.92 "Hg10 mi
Weather by CustomWeather, © 2016

See weather overviewHow to use our weather pages